Year,Month,Day,Hour,Minute,Value (Times are PST for windspeed in km/hr)
2014,12,10,00,00,4.60
2014,12,10,00,01,1.80
2014,12,10,00,02,2.30
2014,12,10,00,03,1.30
2014,12,10,00,04,3.10
2014,12,10,00,05,2.70
2014,12,10,00,06,1.90
2014,12,10,00,07,2.90
2014,12,10,00,08,1.40
2014,12,10,00,09,0.50
2014,12,10,00,10,1.90
2014,12,10,00,11,2.10
2014,12,10,00,12,0.00
2014,12,10,00,13,1.00
2014,12,10,00,14,2.30
2014,12,10,00,15,0.70
2014,12,10,00,16,1.30
2014,12,10,00,17,2.30
2014,12,10,00,18,4.20
2014,12,10,00,19,3.80
2014,12,10,00,20,3.90
2014,12,10,00,21,3.30
2014,12,10,00,22,6.40
2014,12,10,00,23,6.40
2014,12,10,00,24,3.30
2014,12,10,00,25,5.10
2014,12,10,00,26,4.20
2014,12,10,00,27,5.30
2014,12,10,00,28,2.60
2014,12,10,00,29,3.90
2014,12,10,00,30,3.00
2014,12,10,00,31,2.60
2014,12,10,00,32,2.30
2014,12,10,00,33,0.60
2014,12,10,00,34,1.40
2014,12,10,00,35,1.20
2014,12,10,00,36,1.10
2014,12,10,00,37,0.50
2014,12,10,00,38,0.10
2014,12,10,00,39,0.00
2014,12,10,00,40,0.20
2014,12,10,00,41,0.00
2014,12,10,00,42,0.00
2014,12,10,00,43,0.00
2014,12,10,00,44,0.00
2014,12,10,00,45,0.00
2014,12,10,00,46,0.00
2014,12,10,00,47,0.00
2014,12,10,00,48,0.00
2014,12,10,00,49,0.00
2014,12,10,00,50,0.00
2014,12,10,00,51,0.00
2014,12,10,00,52,0.00
2014,12,10,00,53,0.00
2014,12,10,00,54,1.10
2014,12,10,00,55,1.10
2014,12,10,00,56,2.20
2014,12,10,00,57,2.60
2014,12,10,00,58,0.70
2014,12,10,00,59,2.10
2014,12,10,01,00,2.20
2014,12,10,01,01,2.30
2014,12,10,01,02,1.90
2014,12,10,01,03,3.00
2014,12,10,01,04,4.50
2014,12,10,01,05,2.40
2014,12,10,01,06,3.00
2014,12,10,01,07,3.40
2014,12,10,01,08,3.60
2014,12,10,01,09,4.10
2014,12,10,01,10,3.90
2014,12,10,01,11,3.60
2014,12,10,01,12,3.10
2014,12,10,01,13,4.70
2014,12,10,01,14,3.50
2014,12,10,01,15,2.70
2014,12,10,01,16,2.70
2014,12,10,01,17,6.80
2014,12,10,01,18,2.80
2014,12,10,01,19,4.90
2014,12,10,01,20,5.60
2014,12,10,01,21,7.90
2014,12,10,01,22,6.60
2014,12,10,01,23,3.60
2014,12,10,01,24,3.00
2014,12,10,01,25,5.50
2014,12,10,01,26,8.80
2014,12,10,01,27,7.70
2014,12,10,01,28,4.40
2014,12,10,01,29,4.30
2014,12,10,01,30,3.10
2014,12,10,01,31,4.10
2014,12,10,01,32,3.60
2014,12,10,01,33,4.70
2014,12,10,01,34,4.90
2014,12,10,01,35,6.80
2014,12,10,01,36,6.10
2014,12,10,01,37,11.00
2014,12,10,01,38,8.40
2014,12,10,01,39,6.70
2014,12,10,01,40,6.40
2014,12,10,01,41,9.50
2014,12,10,01,42,11.80
2014,12,10,01,43,9.30
2014,12,10,01,44,7.30
2014,12,10,01,45,7.20
2014,12,10,01,46,7.50
2014,12,10,01,47,5.00
2014,12,10,01,48,6.50
2014,12,10,01,49,7.00
2014,12,10,01,50,6.00
2014,12,10,01,51,6.30
2014,12,10,01,52,6.30
2014,12,10,01,53,9.20
2014,12,10,01,54,6.00
2014,12,10,01,55,5.60
2014,12,10,01,56,5.60
2014,12,10,01,57,7.40
2014,12,10,01,58,6.60
2014,12,10,01,59,6.80
2014,12,10,02,00,6.00
2014,12,10,02,01,6.30
2014,12,10,02,02,5.50
2014,12,10,02,03,5.70
2014,12,10,02,04,4.20
2014,12,10,02,05,5.50
2014,12,10,02,06,7.60
2014,12,10,02,07,6.90
2014,12,10,02,08,7.30
2014,12,10,02,09,8.60
2014,12,10,02,10,12.60
2014,12,10,02,11,12.20
2014,12,10,02,12,9.90
2014,12,10,02,13,9.10
2014,12,10,02,14,8.80
2014,12,10,02,15,9.10
2014,12,10,02,16,10.70
2014,12,10,02,17,8.60
2014,12,10,02,18,7.20
2014,12,10,02,19,8.10
2014,12,10,02,20,9.20
2014,12,10,02,21,10.80
2014,12,10,02,22,11.70
2014,12,10,02,23,11.80
2014,12,10,02,24,14.20
2014,12,10,02,25,9.30
2014,12,10,02,26,11.60
2014,12,10,02,27,7.40
2014,12,10,02,28,9.30
2014,12,10,02,29,8.60
2014,12,10,02,30,12.60
2014,12,10,02,31,9.70
2014,12,10,02,32,14.30
2014,12,10,02,33,11.60
2014,12,10,02,34,13.40
2014,12,10,02,35,14.90
2014,12,10,02,36,12.90
2014,12,10,02,37,13.70
2014,12,10,02,38,13.20
2014,12,10,02,39,10.90
2014,12,10,02,40,14.70
2014,12,10,02,41,11.50
2014,12,10,02,42,15.30
2014,12,10,02,43,12.60
2014,12,10,02,44,15.50
2014,12,10,02,45,11.00
2014,12,10,02,46,12.60
2014,12,10,02,47,13.40
2014,12,10,02,48,19.10
2014,12,10,02,49,19.50
2014,12,10,02,50,16.30
2014,12,10,02,51,15.30
2014,12,10,02,52,14.30
2014,12,10,02,53,12.90
2014,12,10,02,54,15.00
2014,12,10,02,55,16.50
2014,12,10,02,56,13.70
2014,12,10,02,57,15.30
2014,12,10,02,58,18.70
2014,12,10,02,59,16.70
2014,12,10,03,00,14.60
2014,12,10,03,01,14.60
2014,12,10,03,02,12.20
2014,12,10,03,03,9.90
2014,12,10,03,04,12.40
2014,12,10,03,05,17.40
2014,12,10,03,06,18.00
2014,12,10,03,07,16.50
2014,12,10,03,08,16.70
2014,12,10,03,09,16.10
2014,12,10,03,10,15.60
2014,12,10,03,11,18.90
2014,12,10,03,12,17.50
2014,12,10,03,13,19.10
2014,12,10,03,14,14.80
2014,12,10,03,15,14.40
2014,12,10,03,16,17.60
2014,12,10,03,17,15.20
2014,12,10,03,18,11.70
2014,12,10,03,19,17.70
2014,12,10,03,20,14.30
2014,12,10,03,21,17.90
2014,12,10,03,22,17.10
2014,12,10,03,23,14.90
2014,12,10,03,24,11.60
2014,12,10,03,25,12.60
2014,12,10,03,26,11.80
2014,12,10,03,27,11.50
2014,12,10,03,28,10.60
2014,12,10,03,29,12.50
2014,12,10,03,30,14.60
2014,12,10,03,31,15.40
2014,12,10,03,32,8.60
2014,12,10,03,33,8.80
2014,12,10,03,34,9.50
2014,12,10,03,35,11.70
2014,12,10,03,36,12.80
2014,12,10,03,37,10.70
2014,12,10,03,38,12.50
2014,12,10,03,39,14.60
2014,12,10,03,40,9.60
2014,12,10,03,41,15.20
2014,12,10,03,42,12.00
2014,12,10,03,43,10.00
2014,12,10,03,44,11.40
2014,12,10,03,45,11.70
2014,12,10,03,46,11.90
2014,12,10,03,47,9.70
2014,12,10,03,48,14.00
2014,12,10,03,49,10.70
2014,12,10,03,50,8.30
2014,12,10,03,51,13.90
2014,12,10,03,52,10.30
2014,12,10,03,53,9.00
2014,12,10,03,54,8.50
2014,12,10,03,55,12.60
2014,12,10,03,56,10.90
2014,12,10,03,57,8.90
2014,12,10,03,58,14.60
2014,12,10,03,59,10.00
2014,12,10,04,00,9.50
2014,12,10,04,01,9.00
2014,12,10,04,02,7.40
2014,12,10,04,03,7.00
2014,12,10,04,04,9.30
2014,12,10,04,05,6.00
2014,12,10,04,06,10.60
2014,12,10,04,07,8.60
2014,12,10,04,08,7.90
2014,12,10,04,09,9.50
2014,12,10,04,10,6.80
2014,12,10,04,11,14.30
2014,12,10,04,12,13.60
2014,12,10,04,13,16.70
2014,12,10,04,14,14.80
2014,12,10,04,15,18.60
2014,12,10,04,16,15.00
2014,12,10,04,17,11.40
2014,12,10,04,18,9.00
2014,12,10,04,19,17.10
2014,12,10,04,20,14.20
2014,12,10,04,21,15.90
2014,12,10,04,22,16.50
2014,12,10,04,23,15.00
2014,12,10,04,24,12.80
2014,12,10,04,25,11.20
2014,12,10,04,26,13.00
2014,12,10,04,27,11.30
2014,12,10,04,28,15.10
2014,12,10,04,29,14.70
2014,12,10,04,30,15.90
2014,12,10,04,31,13.30
2014,12,10,04,32,17.20
2014,12,10,04,33,15.70
2014,12,10,04,34,15.00
2014,12,10,04,35,18.20
2014,12,10,04,36,16.40
2014,12,10,04,37,13.00
2014,12,10,04,38,10.70
2014,12,10,04,39,18.30
2014,12,10,04,40,19.50
2014,12,10,04,41,16.60
2014,12,10,04,42,18.70
2014,12,10,04,43,13.90
2014,12,10,04,44,20.40
2014,12,10,04,45,12.90
2014,12,10,04,46,19.00
2014,12,10,04,47,17.30
2014,12,10,04,48,16.50
2014,12,10,04,49,16.70
2014,12,10,04,50,14.60
2014,12,10,04,51,14.80
2014,12,10,04,52,15.20
2014,12,10,04,53,15.60
2014,12,10,04,54,19.80
2014,12,10,04,55,12.90
2014,12,10,04,56,19.60
2014,12,10,04,57,16.50
2014,12,10,04,58,19.80
2014,12,10,04,59,13.70
2014,12,10,05,00,21.30
2014,12,10,05,01,20.80
2014,12,10,05,02,18.60
2014,12,10,05,03,18.50
2014,12,10,05,04,20.50
2014,12,10,05,05,23.30
2014,12,10,05,06,19.60
2014,12,10,05,07,20.40
2014,12,10,05,08,18.70
2014,12,10,05,09,18.00
2014,12,10,05,10,14.20
2014,12,10,05,11,17.30
2014,12,10,05,12,14.60
2014,12,10,05,13,17.90
2014,12,10,05,14,14.30
2014,12,10,05,15,16.70
2014,12,10,05,16,8.20
2014,12,10,05,17,10.70
2014,12,10,05,18,12.10
2014,12,10,05,19,14.40
2014,12,10,05,20,13.30
2014,12,10,05,21,10.90
2014,12,10,05,22,10.30
2014,12,10,05,23,14.20
2014,12,10,05,24,8.90
2014,12,10,05,25,10.20
2014,12,10,05,26,10.40
2014,12,10,05,27,13.00
2014,12,10,05,28,12.00
2014,12,10,05,29,14.60
2014,12,10,05,30,17.90
2014,12,10,05,31,12.30
2014,12,10,05,32,11.40
2014,12,10,05,33,8.50
2014,12,10,05,34,16.90
2014,12,10,05,35,11.30
2014,12,10,05,36,13.50
2014,12,10,05,37,18.40
2014,12,10,05,38,17.20
2014,12,10,05,39,18.00
2014,12,10,05,40,16.60
2014,12,10,05,41,19.00
2014,12,10,05,42,17.50
2014,12,10,05,43,14.60
2014,12,10,05,44,15.30
2014,12,10,05,45,18.20
2014,12,10,05,46,15.70
2014,12,10,05,47,19.90
2014,12,10,05,48,16.20
2014,12,10,05,49,17.50
2014,12,10,05,50,18.30
2014,12,10,05,51,16.20
2014,12,10,05,52,21.20
2014,12,10,05,53,20.30
2014,12,10,05,54,20.00
2014,12,10,05,55,12.30
2014,12,10,05,56,18.90
2014,12,10,05,57,23.40
2014,12,10,05,58,13.20
2014,12,10,05,59,17.00
2014,12,10,06,00,8.30
2014,12,10,06,01,13.10
2014,12,10,06,02,15.90
2014,12,10,06,03,11.30
2014,12,10,06,04,16.10
2014,12,10,06,05,14.60
2014,12,10,06,06,14.40
2014,12,10,06,07,20.00
2014,12,10,06,08,17.50
2014,12,10,06,09,16.40
2014,12,10,06,10,12.90
2014,12,10,06,11,14.00
2014,12,10,06,12,14.80
2014,12,10,06,13,15.40
2014,12,10,06,14,15.90
2014,12,10,06,15,14.60
2014,12,10,06,16,17.40
2014,12,10,06,17,20.50
2014,12,10,06,18,20.50
2014,12,10,06,19,17.30
2014,12,10,06,20,19.00
2014,12,10,06,21,20.20
2014,12,10,06,22,16.00
2014,12,10,06,23,16.50
2014,12,10,06,24,13.90
2014,12,10,06,25,12.80
2014,12,10,06,26,16.00
2014,12,10,06,27,17.10
2014,12,10,06,28,17.30
2014,12,10,06,29,19.30
2014,12,10,06,30,18.50
2014,12,10,06,31,19.20
2014,12,10,06,32,15.90
2014,12,10,06,33,17.00
2014,12,10,06,34,13.60
2014,12,10,06,35,14.80
2014,12,10,06,36,23.30
2014,12,10,06,37,16.70
2014,12,10,06,38,19.00
2014,12,10,06,39,26.30
2014,12,10,06,40,16.20
2014,12,10,06,41,18.80
2014,12,10,06,42,24.70
2014,12,10,06,43,14.80
2014,12,10,06,44,15.60
2014,12,10,06,45,17.40
2014,12,10,06,46,15.90
2014,12,10,06,47,13.20
2014,12,10,06,48,14.30
2014,12,10,06,49,17.20
2014,12,10,06,50,20.40
2014,12,10,06,51,14.20
2014,12,10,06,52,16.60
2014,12,10,06,53,15.90
2014,12,10,06,54,16.70
2014,12,10,06,55,14.80
2014,12,10,06,56,15.90
2014,12,10,06,57,21.00
2014,12,10,06,58,15.60
2014,12,10,06,59,15.10
2014,12,10,07,00,13.40
2014,12,10,07,01,12.60
2014,12,10,07,02,15.70
2014,12,10,07,03,21.70
2014,12,10,07,04,18.30
2014,12,10,07,05,18.00
2014,12,10,07,06,16.60
2014,12,10,07,07,19.60
2014,12,10,07,08,16.20
2014,12,10,07,09,12.50
2014,12,10,07,10,13.80
2014,12,10,07,11,20.10
2014,12,10,07,12,15.20
2014,12,10,07,13,17.50
2014,12,10,07,14,17.50
2014,12,10,07,15,13.30
2014,12,10,07,16,17.30
2014,12,10,07,17,13.10
2014,12,10,07,18,10.70
2014,12,10,07,19,10.50
2014,12,10,07,20,15.60
2014,12,10,07,21,13.70
2014,12,10,07,22,13.60
2014,12,10,07,23,14.50
2014,12,10,07,24,13.30
2014,12,10,07,25,15.70
2014,12,10,07,26,14.10
2014,12,10,07,27,10.80
2014,12,10,07,28,13.50
2014,12,10,07,29,12.70
2014,12,10,07,30,11.20
2014,12,10,07,31,13.50
2014,12,10,07,32,9.60
2014,12,10,07,33,15.20
2014,12,10,07,34,15.10
2014,12,10,07,35,14.20
2014,12,10,07,36,17.10
2014,12,10,07,37,13.80
2014,12,10,07,38,13.20
2014,12,10,07,39,14.90
2014,12,10,07,40,14.70
2014,12,10,07,41,14.20
2014,12,10,07,42,15.80
2014,12,10,07,43,16.80
2014,12,10,07,44,15.10
2014,12,10,07,45,16.20
2014,12,10,07,46,18.40
2014,12,10,07,47,11.60
2014,12,10,07,48,15.40
2014,12,10,07,49,11.10
2014,12,10,07,50,12.30
2014,12,10,07,51,14.20
2014,12,10,07,52,13.50
2014,12,10,07,53,10.30
2014,12,10,07,54,13.10
2014,12,10,07,55,12.50
2014,12,10,07,56,15.10
2014,12,10,07,57,15.10
2014,12,10,07,58,16.60
2014,12,10,07,59,13.80
2014,12,10,08,00,22.20
2014,12,10,08,01,16.70
2014,12,10,08,02,10.60
2014,12,10,08,03,11.70
2014,12,10,08,04,12.60
2014,12,10,08,05,16.70
2014,12,10,08,06,17.80
2014,12,10,08,07,16.00
2014,12,10,08,08,17.60
2014,12,10,08,09,16.50
2014,12,10,08,10,15.40
2014,12,10,08,11,16.90
2014,12,10,08,12,17.00
2014,12,10,08,13,11.90
2014,12,10,08,14,14.20
2014,12,10,08,15,14.90
2014,12,10,08,16,15.80
2014,12,10,08,17,11.70
2014,12,10,08,18,15.00
2014,12,10,08,19,21.10
2014,12,10,08,20,13.20
2014,12,10,08,21,14.30
2014,12,10,08,22,18.80
2014,12,10,08,23,15.40
2014,12,10,08,24,22.10
2014,12,10,08,25,20.40
2014,12,10,08,26,15.50
2014,12,10,08,27,13.10
2014,12,10,08,28,13.20
2014,12,10,08,29,15.00
2014,12,10,08,30,16.30
2014,12,10,08,31,10.20
2014,12,10,08,32,13.00
2014,12,10,08,33,11.50
2014,12,10,08,34,17.30
2014,12,10,08,35,9.80
2014,12,10,08,36,20.40
2014,12,10,08,37,12.20
2014,12,10,08,38,7.30
2014,12,10,08,39,15.10
2014,12,10,08,40,15.40
2014,12,10,08,41,11.00
2014,12,10,08,42,10.10
2014,12,10,08,43,12.00
2014,12,10,08,44,14.00
2014,12,10,08,45,19.10
2014,12,10,08,46,20.30
2014,12,10,08,47,19.90
2014,12,10,08,48,15.50
2014,12,10,08,49,12.20
2014,12,10,08,50,13.00
2014,12,10,08,51,16.30
2014,12,10,08,52,18.70
2014,12,10,08,53,18.70
2014,12,10,08,54,18.80
2014,12,10,08,55,15.50
2014,12,10,08,56,15.70
2014,12,10,08,57,18.30
2014,12,10,08,58,16.60
2014,12,10,08,59,13.90
2014,12,10,09,00,12.20
2014,12,10,09,01,13.80
2014,12,10,09,02,16.70
2014,12,10,09,03,15.60
2014,12,10,09,04,15.50
2014,12,10,09,05,21.10
2014,12,10,09,06,22.90
2014,12,10,09,07,13.40
2014,12,10,09,08,14.20
2014,12,10,09,56,29.00
2014,12,10,09,57,19.80
2014,12,10,09,58,19.40
2014,12,10,09,59,17.20
2014,12,10,10,00,15.70
2014,12,10,10,01,18.90
2014,12,10,10,02,17.40
2014,12,10,10,03,20.00
2014,12,10,10,04,17.00
2014,12,10,10,05,17.50
2014,12,10,10,06,16.40
2014,12,10,10,07,19.50
2014,12,10,10,08,19.80
2014,12,10,10,09,14.20
2014,12,10,10,10,12.60
2014,12,10,10,11,14.60
2014,12,10,10,12,10.50
2014,12,10,10,13,15.00
2014,12,10,10,14,16.30
2014,12,10,10,15,15.00
2014,12,10,10,16,17.40
2014,12,10,10,17,10.30
2014,12,10,10,18,13.00
2014,12,10,10,19,14.60
2014,12,10,10,20,11.60
2014,12,10,10,21,15.20
2014,12,10,10,22,14.30
2014,12,10,10,23,13.70
2014,12,10,10,24,18.90
2014,12,10,10,25,14.00
2014,12,10,10,26,18.30
2014,12,10,10,27,18.20
2014,12,10,10,28,24.30
2014,12,10,10,29,21.40
2014,12,10,10,30,20.40
2014,12,10,10,31,18.60
2014,12,10,10,32,16.70
2014,12,10,10,33,13.50
2014,12,10,10,34,20.00
2014,12,10,10,35,16.20
2014,12,10,10,36,16.30
2014,12,10,10,37,16.70
2014,12,10,10,38,16.30
2014,12,10,10,39,17.60
2014,12,10,10,40,17.20
2014,12,10,10,41,16.50
2014,12,10,10,42,15.40
2014,12,10,10,43,17.40
2014,12,10,10,44,9.90
2014,12,10,10,45,9.00
2014,12,10,10,46,9.80
2014,12,10,10,47,12.20
2014,12,10,10,48,13.20
2014,12,10,10,49,8.40
2014,12,10,10,50,6.20
2014,12,10,10,51,9.40
2014,12,10,10,52,9.30
2014,12,10,10,53,5.90
2014,12,10,10,54,8.50
2014,12,10,10,55,7.40
2014,12,10,10,56,7.30
2014,12,10,10,57,7.70
2014,12,10,10,58,7.10
2014,12,10,10,59,5.40
2014,12,10,11,00,6.40
2014,12,10,11,01,5.90
2014,12,10,11,02,8.00
2014,12,10,11,03,7.10
2014,12,10,11,04,6.80
2014,12,10,11,05,8.00
2014,12,10,11,06,10.10
2014,12,10,11,07,11.70
2014,12,10,11,08,10.10
2014,12,10,11,09,13.40
2014,12,10,11,10,10.20
2014,12,10,11,11,7.20
2014,12,10,11,12,12.30
2014,12,10,11,13,13.00
2014,12,10,11,14,11.60
2014,12,10,11,15,9.10
2014,12,10,11,16,12.50
2014,12,10,11,17,8.40
2014,12,10,11,18,8.10
2014,12,10,11,19,5.10
2014,12,10,11,20,7.00
2014,12,10,11,21,14.50
2014,12,10,11,22,13.80
2014,12,10,11,23,9.20
2014,12,10,11,24,10.10
2014,12,10,11,25,6.40
2014,12,10,11,26,10.90
2014,12,10,11,27,11.30
2014,12,10,11,28,11.50
2014,12,10,11,29,9.70
2014,12,10,11,30,8.80
2014,12,10,11,31,11.20
2014,12,10,11,32,9.50
2014,12,10,11,33,6.70
2014,12,10,11,34,9.00
2014,12,10,11,35,7.40
2014,12,10,11,36,7.60
2014,12,10,11,37,6.80
2014,12,10,11,38,7.40
2014,12,10,11,39,7.50
2014,12,10,11,40,7.30
2014,12,10,11,41,6.30
2014,12,10,11,42,7.60
2014,12,10,11,43,9.40
2014,12,10,11,44,8.50
2014,12,10,11,45,8.20
2014,12,10,11,46,8.40
2014,12,10,11,47,9.50
2014,12,10,11,48,10.30
2014,12,10,11,49,9.10
2014,12,10,11,50,9.30
2014,12,10,11,51,9.10
2014,12,10,11,52,10.30
2014,12,10,11,53,8.00
2014,12,10,11,54,8.50
2014,12,10,11,55,8.70
2014,12,10,11,56,7.20
2014,12,10,11,57,5.80
2014,12,10,11,58,6.30
2014,12,10,11,59,6.90
2014,12,10,12,00,5.80
2014,12,10,12,01,7.00
2014,12,10,12,02,6.10
2014,12,10,12,03,5.70
2014,12,10,12,04,6.80
2014,12,10,12,05,5.60
2014,12,10,12,06,5.00
2014,12,10,12,07,4.20
2014,12,10,12,08,5.10
2014,12,10,12,09,5.50
2014,12,10,12,10,6.00
2014,12,10,12,11,6.00
2014,12,10,12,12,5.40
2014,12,10,12,13,5.60
2014,12,10,12,14,6.30
2014,12,10,12,15,6.20
2014,12,10,12,16,7.10
2014,12,10,12,17,5.70
2014,12,10,12,18,6.80
2014,12,10,12,19,7.00
2014,12,10,12,20,8.30
2014,12,10,12,21,10.30
2014,12,10,12,22,9.10
2014,12,10,12,23,4.80
2014,12,10,12,24,5.60
2014,12,10,12,25,7.60
2014,12,10,12,26,9.90
2014,12,10,12,27,8.10
2014,12,10,12,28,8.70
2014,12,10,12,29,7.20
2014,12,10,12,30,9.20
2014,12,10,12,31,6.60
2014,12,10,12,32,5.90
2014,12,10,12,33,6.60
2014,12,10,12,34,8.50
2014,12,10,12,35,6.10
2014,12,10,12,36,5.80
2014,12,10,12,37,9.10
2014,12,10,12,38,6.90
2014,12,10,12,39,5.80
2014,12,10,12,40,5.30
2014,12,10,12,41,7.50
2014,12,10,12,42,4.50
2014,12,10,12,43,6.00
2014,12,10,12,44,5.20
2014,12,10,12,45,6.40
2014,12,10,12,46,6.30
2014,12,10,12,47,4.30
2014,12,10,12,48,3.60
2014,12,10,12,49,5.30
2014,12,10,12,50,7.10
2014,12,10,12,51,4.70
2014,12,10,12,52,2.90
2014,12,10,12,53,4.10
2014,12,10,12,54,2.80
2014,12,10,12,55,3.40
2014,12,10,12,56,5.80
2014,12,10,12,57,5.10
2014,12,10,12,58,4.50
2014,12,10,12,59,4.70
2014,12,10,13,00,4.70
2014,12,10,13,01,7.70
2014,12,10,13,02,4.20
2014,12,10,13,03,4.50
2014,12,10,13,04,4.60
2014,12,10,13,05,5.20
2014,12,10,13,06,4.70
2014,12,10,13,07,7.10
2014,12,10,13,08,6.80
2014,12,10,13,09,7.20
2014,12,10,13,10,3.70
2014,12,10,13,11,3.00
2014,12,10,13,12,3.90
2014,12,10,13,13,5.70
2014,12,10,13,14,4.10
2014,12,10,13,15,9.50
2014,12,10,13,16,8.00
2014,12,10,13,17,7.50
2014,12,10,13,18,10.90
2014,12,10,13,19,10.10
2014,12,10,13,20,12.60
2014,12,10,13,21,12.20
2014,12,10,13,22,9.70
2014,12,10,13,23,10.30
2014,12,10,13,24,7.70
2014,12,10,13,25,6.20
2014,12,10,13,26,6.50
2014,12,10,13,27,4.70
2014,12,10,13,28,5.70
2014,12,10,13,29,6.00
2014,12,10,13,30,6.80
2014,12,10,13,31,6.30
2014,12,10,13,32,4.40
2014,12,10,13,33,4.50
2014,12,10,13,34,4.10
2014,12,10,13,35,3.00
2014,12,10,13,36,4.30
2014,12,10,13,37,5.00
2014,12,10,13,38,3.50
2014,12,10,13,39,2.90
2014,12,10,13,40,4.20
2014,12,10,13,41,5.10
2014,12,10,13,42,3.80
2014,12,10,13,43,3.50
2014,12,10,13,44,5.20
2014,12,10,13,45,2.40
2014,12,10,13,46,5.60
2014,12,10,13,47,3.30
2014,12,10,13,48,5.40
2014,12,10,13,49,2.30
2014,12,10,13,50,1.90
2014,12,10,13,51,1.90
2014,12,10,13,52,2.10
2014,12,10,13,53,2.20
2014,12,10,13,54,4.20
2014,12,10,13,55,1.90
2014,12,10,13,56,1.80
2014,12,10,13,57,4.30
2014,12,10,13,58,2.40
2014,12,10,13,59,5.60
2014,12,10,14,00,5.60
2014,12,10,14,01,4.50
2014,12,10,14,02,4.20
2014,12,10,14,03,4.00
2014,12,10,14,04,4.90
2014,12,10,14,05,5.40
2014,12,10,14,06,6.60
2014,12,10,14,07,6.90
2014,12,10,14,08,7.30
2014,12,10,14,09,7.60
2014,12,10,14,10,6.40
2014,12,10,14,11,4.70
2014,12,10,14,12,5.50
2014,12,10,14,13,6.50
2014,12,10,14,14,8.50
2014,12,10,14,15,8.70
2014,12,10,14,16,7.20
2014,12,10,14,17,5.30
2014,12,10,14,18,9.00
2014,12,10,14,19,5.50
2014,12,10,14,20,5.50
2014,12,10,14,21,6.00
2014,12,10,14,22,5.60
2014,12,10,14,23,5.30
2014,12,10,14,24,4.60
2014,12,10,14,25,4.40
2014,12,10,14,26,6.40
2014,12,10,14,27,4.90
2014,12,10,14,28,8.50
2014,12,10,14,29,6.00
2014,12,10,14,30,4.30
2014,12,10,14,31,3.00
2014,12,10,14,32,5.90
2014,12,10,14,33,5.10
2014,12,10,14,34,5.20
2014,12,10,14,35,5.10
2014,12,10,14,36,4.10
2014,12,10,14,37,5.10
2014,12,10,14,38,4.60
2014,12,10,14,39,4.60
2014,12,10,14,40,2.60
2014,12,10,14,41,1.40
2014,12,10,14,42,0.40
2014,12,10,14,43,0.90
2014,12,10,14,44,2.10
2014,12,10,14,45,3.00
2014,12,10,14,46,3.10
2014,12,10,14,47,4.40
2014,12,10,14,48,6.60
2014,12,10,14,49,3.30
2014,12,10,14,50,2.30
2014,12,10,14,51,0.20
2014,12,10,14,52,2.80
2014,12,10,14,53,0.80
2014,12,10,14,54,1.30
2014,12,10,14,55,0.20
2014,12,10,14,56,0.00
2014,12,10,14,57,0.00
2014,12,10,14,58,0.10
2014,12,10,14,59,1.90
2014,12,10,15,00,2.20
2014,12,10,15,01,2.60
2014,12,10,15,02,3.00
2014,12,10,15,03,1.50
2014,12,10,15,04,1.60
2014,12,10,15,05,2.00
2014,12,10,15,06,1.60
2014,12,10,15,07,2.70
2014,12,10,15,08,2.30
2014,12,10,15,09,3.00
2014,12,10,15,10,1.60
2014,12,10,15,11,0.80
2014,12,10,15,12,1.20
2014,12,10,15,13,0.60
2014,12,10,15,14,3.70
2014,12,10,15,15,3.90
2014,12,10,15,16,6.30
2014,12,10,15,17,4.10
2014,12,10,15,18,4.40
2014,12,10,15,19,3.70
2014,12,10,15,20,3.30
2014,12,10,15,21,4.30
2014,12,10,15,22,5.30
2014,12,10,15,23,4.20
2014,12,10,15,24,6.40
2014,12,10,15,25,5.00
2014,12,10,15,26,5.30
2014,12,10,15,27,7.80
2014,12,10,15,28,6.00
2014,12,10,15,29,7.70
2014,12,10,15,30,6.40
2014,12,10,15,31,7.00
2014,12,10,15,32,4.80
2014,12,10,15,33,6.80
2014,12,10,15,34,6.50
2014,12,10,15,35,4.10
2014,12,10,15,36,4.80
2014,12,10,15,37,5.00
2014,12,10,15,38,7.60
2014,12,10,15,39,6.70
2014,12,10,15,40,3.60
2014,12,10,15,41,2.20
2014,12,10,15,42,2.90
2014,12,10,15,43,3.10
2014,12,10,15,44,2.00
2014,12,10,15,45,4.70
2014,12,10,15,46,3.40
2014,12,10,15,47,2.90
2014,12,10,15,48,1.90
2014,12,10,15,49,2.80
2014,12,10,15,50,3.40
2014,12,10,15,51,3.30
2014,12,10,15,52,3.00
2014,12,10,15,53,4.30
2014,12,10,15,54,2.70
2014,12,10,15,55,2.40
2014,12,10,15,56,2.40
2014,12,10,15,57,3.20
2014,12,10,15,58,2.90
2014,12,10,15,59,2.90
2014,12,10,16,00,1.80
2014,12,10,16,01,1.40
2014,12,10,16,02,2.90
2014,12,10,16,03,1.70
2014,12,10,16,04,1.70
2014,12,10,16,05,3.10
2014,12,10,16,06,1.90
2014,12,10,16,07,1.90
2014,12,10,16,08,3.50
2014,12,10,16,09,1.90
2014,12,10,16,10,1.30
2014,12,10,16,11,0.20
2014,12,10,16,12,0.80
2014,12,10,16,13,0.80
2014,12,10,16,14,0.00
2014,12,10,16,15,0.10
2014,12,10,16,16,0.00
2014,12,10,16,17,0.40
2014,12,10,16,18,1.80
2014,12,10,16,19,1.40
2014,12,10,16,20,1.90
2014,12,10,16,21,1.50
2014,12,10,16,22,0.50
2014,12,10,16,23,0.40
2014,12,10,16,24,0.70
2014,12,10,16,25,0.90
2014,12,10,16,26,0.30
2014,12,10,16,27,0.20
2014,12,10,16,28,0.00
2014,12,10,16,29,0.00
2014,12,10,16,30,0.00
2014,12,10,16,31,0.20
2014,12,10,16,32,0.00
2014,12,10,16,33,0.20
2014,12,10,16,34,0.20
2014,12,10,16,35,0.20
2014,12,10,16,36,0.00
2014,12,10,16,37,0.00
2014,12,10,16,38,0.10
2014,12,10,16,39,2.60
2014,12,10,16,40,3.10
2014,12,10,16,41,4.20
2014,12,10,16,42,4.00
2014,12,10,16,43,2.80
2014,12,10,16,44,3.60
2014,12,10,16,45,3.90
2014,12,10,16,46,4.10
2014,12,10,16,47,6.30
2014,12,10,16,48,8.10
2014,12,10,16,49,7.40
2014,12,10,16,50,8.90
2014,12,10,16,51,8.70
2014,12,10,16,52,8.10
2014,12,10,16,53,6.00
2014,12,10,16,54,7.00
2014,12,10,16,55,1.50
2014,12,10,16,56,0.60
2014,12,10,16,57,1.80
2014,12,10,16,58,2.60
2014,12,10,16,59,3.80
2014,12,10,17,00,4.20
2014,12,10,17,01,3.60
2014,12,10,17,02,3.90
2014,12,10,17,03,3.20
2014,12,10,17,04,1.90
2014,12,10,17,05,2.30
2014,12,10,17,06,0.20
2014,12,10,17,07,0.00
2014,12,10,17,08,2.20
2014,12,10,17,09,3.00
2014,12,10,17,10,3.10
2014,12,10,17,11,2.50
2014,12,10,17,12,1.70
2014,12,10,17,13,2.70
2014,12,10,17,14,1.70
2014,12,10,17,15,2.50
2014,12,10,17,16,2.20
2014,12,10,17,17,2.40
2014,12,10,17,18,4.00
2014,12,10,17,19,3.10
2014,12,10,17,20,1.60
2014,12,10,17,21,0.20
2014,12,10,17,22,0.60
2014,12,10,17,23,1.80
2014,12,10,17,24,2.00
2014,12,10,17,25,2.60
2014,12,10,17,26,2.10
2014,12,10,17,27,1.10
2014,12,10,17,28,1.40
2014,12,10,17,29,0.00
2014,12,10,17,30,0.20
2014,12,10,17,31,1.40
2014,12,10,17,32,1.40
2014,12,10,17,33,0.30
2014,12,10,17,34,0.70
2014,12,10,17,35,0.00
2014,12,10,17,36,1.10
2014,12,10,17,37,3.30
2014,12,10,17,38,3.70
2014,12,10,17,39,3.30
2014,12,10,17,40,5.40
2014,12,10,17,41,6.10
2014,12,10,17,42,6.60
2014,12,10,17,43,4.30
2014,12,10,17,44,4.60
2014,12,10,17,45,1.90
2014,12,10,17,46,1.40
2014,12,10,17,47,3.80
2014,12,10,17,48,1.40
2014,12,10,17,49,1.50
2014,12,10,17,50,0.80
2014,12,10,17,51,0.00
2014,12,10,17,52,0.00
2014,12,10,17,53,1.00
2014,12,10,17,54,1.50
2014,12,10,17,55,1.90
2014,12,10,17,56,1.70
2014,12,10,17,57,1.20
2014,12,10,17,58,2.90
2014,12,10,17,59,5.10
2014,12,10,18,00,5.40
2014,12,10,18,01,5.30
2014,12,10,18,02,4.10
2014,12,10,18,03,1.80
2014,12,10,18,04,2.60
2014,12,10,18,05,2.30
2014,12,10,18,06,1.90
2014,12,10,18,07,1.00
2014,12,10,18,08,0.10
2014,12,10,18,09,1.80
2014,12,10,18,10,1.20
2014,12,10,18,11,1.70
2014,12,10,18,12,0.20
2014,12,10,18,13,0.10
2014,12,10,18,14,2.20
2014,12,10,18,15,3.00
2014,12,10,18,16,3.90
2014,12,10,18,17,3.80
2014,12,10,18,18,3.40
2014,12,10,18,19,1.40
2014,12,10,18,20,1.90
2014,12,10,18,21,2.40
2014,12,10,18,22,1.10
2014,12,10,18,23,0.80
2014,12,10,18,24,0.40
2014,12,10,18,25,0.00
2014,12,10,18,26,0.20
2014,12,10,18,27,1.20
2014,12,10,18,28,0.90
2014,12,10,18,29,1.90
2014,12,10,18,30,3.50
2014,12,10,18,31,4.30
2014,12,10,18,32,4.60
2014,12,10,18,33,5.30